[[{"header":{"parameterUnit":"m.s-1","parameterCategory":1,"la1":30.2991,"la2":30.254,"lo1":-89.0895,"lo2":-89.0444,"dy":0.0017,"dx":0.0017,"nx":28,"ny":28,"refTime":"2023-09-21T09:00:00:Z","depth":0,"parameterNumber":2,"parameterNumberName":"U-component_of_WINDS"},"data":[0,0,0,0,0,0,0,0,0,0,0,0,0,0,0,0,0,0,0,0,0,0,0,0,0,0,0,0,0,0,0,0,0,0,0,0,0,0,0,0,0,0,0,0,0,0,0,0,0,0,0,0,0,0,0,0,0,0,-4.2949,-4.2951,0,-4.3115,-4.3117,-4.3119,-4.3045,-4.3041,-4.3037,-4.3033,-4.3207,-4.3215,-4.3223,0,0,0,0,0,0,0,0,0,0,0,0,0,-4.2571,-4.2579,-4.2949,-4.2951,-4.2953,-4.3115,-4.3117,-4.3119,-4.3046,-4.3041,-4.3036,-4.3031,-4.3204,-4.3214,-4.3224,0,0,0,0,0,0,0,0,0,0,0,0,0,-4.2736,-4.2581,-4.2948,-4.2936,-4.2936,-4.3114,-4.3117,-4.312,-4.3047,-4.3041,-4.3035,-4.3029,-4.32,-4.3213,-4.3225,-4.3426,0,0,-4.3264,-4.3269,0,0,0,0,0,0,0,0,-4.2727,-4.275,-4.2936,-4.2937,-4.2938,-4.3053,-4.3047,-4.3223,-4.3049,-4.3005,-4.3033,-4.3026,-4.3161,-4.3176,-4.3221,-4.3434,-4.3442,-4.3265,-4.3273,-4.3278,-4.3282,0,0,0,0,0,0,0,-4.2716,-4.2743,-4.3015,-4.2938,-4.294,-4.2923,-4.294,-4.308,-4.3115,-4.3008,-4.3004,-4.3024,-4.316,-4.3209,-4.3224,-4.3444,-4.3265,-4.3276,-4.3284,-4.3289,-4.3833,-4.384,0,0,0,0,0,0,-4.2704,-4.2734,-4.3009,-4.3019,-4.2815,-4.2935,-4.2953,-4.3022,-4.3114,-4.3122,-4.3029,-4.302,-4.319,-4.321,-4.323,-4.3474,-4.3278,-4.329,-4.3297,-4.3827,-4.3835,-4.3842,0,0,0,0,0,0,-4.2696,-4.2729,-4.3003,-4.2875,-4.2909,-4.2948,-4.3026,-4.3029,-4.3078,-4.3129,-4.3135,-4.3072,-4.3186,-4.3213,-4.3378,-4.3479,-4.3296,-4.3307,-4.3819,-4.3829,-4.3839,-4.3961,0,0,0,0,0,0,-4.2686,-4.2727,-4.2803,-4.2878,-4.2916,-4.3147,-4.3032,-4.3037,-4.3099,-4.3089,-4.3171,-4.3179,-4.3183,-4.336,-4.3391,-4.3493,-4.3317,-4.381,-4.3823,-4.3835,-4.3948,-4.3974,-4.3996,0,0,0,0,0,-4.2672,-4.2831,-4.2807,-4.2841,-4.3012,-4.3153,-4.3175,-4.3176,-4.3107,-4.3185,-4.3218,-4.3177,-4.3462,-4.3378,-4.3412,-4.3519,-4.3804,-4.3819,-4.3834,-4.3937,-4.3969,-4.3996,0,0,0,0,0,0,-4.2767,-4.284,-4.2815,-4.3002,-4.3072,-4.314,-4.3238,-4.3209,-4.3301,-4.3287,-4.3285,-4.3304,-4.3477,-4.3514,-4.3418,-4.3719,-4.3623,-4.3646,-4.3689,-4.372,-4.3743,-4.3732,-4.3327,0,0,0,0,0,-4.281,-4.2918,-4.2976,-4.3135,-4.3172,-4.3199,-4.3261,-4.3255,-4.3328,-4.3358,-4.3403,-4.3476,-4.3582,-4.3653,-4.3753,-4.3952,-4.3971,-4.4043,-4.4067,-4.4087,-4.4108,-4.4218,-4.4252,-4.3893,-4.3893,-4.3893,0,0,-4.2899,-4.2952,-4.3021,-4.3156,-4.3209,-4.3323,-4.3225,-4.3348,-4.3433,-4.3377,-4.3536,-4.3573,-4.3654,-4.3838,-4.3922,-4.3875,-4.421,-4.4106,-4.4122,-4.4132,-4.4238,-4.4272,-4.4302,-4.3904,-4.3902,-4.39,0,0,-4.3121,-4.3171,-4.331,-4.3366,-4.3448,-4.3465,-4.3499,-4.3572,-4.3594,-4.3754,-4.3715,-4.3816,-4.3998,-4.4059,-4.4114,-4.4359,-4.4325,-4.4392,-4.4519,-4.4626,-4.4655,-4.468,-4.477,-4.4802,-4.4412,-4.4412,-4.4412,0,-4.3222,-4.339,-4.3385,-4.3513,-4.3575,-4.3528,-4.367,-4.3725,-4.3836,-4.388,-4.3826,-4.4055,-4.4107,-4.4305,-4.4365,-4.441,-4.445,-4.4383,-4.4651,-4.4676,-4.4699,-4.4785,-4.4819,-4.442,-4.4419,-4.4418,-4.4417,0,-4.3511,-4.3629,-4.3731,-4.384,-4.3913,-4.4047,-4.4064,-4.4139,-4.4127,-4.4151,-4.4316,-4.4376,-4.4489,-4.4535,-4.4525,-4.4733,-4.4702,-4.4649,-4.4552,-4.4741,-4.4822,-4.4855,-4.4431,-4.4428,-4.4426,-4.4424,0,0,-4.3798,-4.3903,-4.3941,-4.399,-4.4078,-4.4169,-4.4302,-4.4411,-4.4477,-4.4555,-4.4668,-4.4824,-4.4776,-4.4838,-4.4834,-4.4929,-4.5122,-4.4865,-4.4867,-4.4913,-4.5359,-4.54,-4.5438,-4.5099,-4.5106,-4.511,-4.5353,0,-4.4028,-4.426,-4.426,-4.4475,-4.4584,-4.4542,-4.4658,-4.4725,-4.4751,-4.4849,-4.4877,-4.4989,-4.4916,-4.4953,-4.5045,-4.5079,-4.5212,-4.5062,-4.5207,-4.5212,-4.519,-4.548,-4.5523,-4.5749,-4.5384,-4.539,-4.5394,0,-4.4327,-4.4415,-4.464,-4.4713,-4.4759,-4.4864,-4.4965,-4.5058,-4.5134,-4.5146,-4.5217,-4.5199,-4.5336,-4.5233,-4.5423,-4.5321,-4.538,-4.5406,-4.5415,-4.5431,-4.5316,-4.5506,-4.5821,-4.5856,-4.5443,-4.5439,-4.5435,0,-4.4517,-4.4691,-4.4849,-4.4892,-4.4981,-4.5056,-4.5096,-4.5166,-4.5232,-4.5321,-4.5365,-4.5469,-4.5527,-4.5608,-4.562,-4.5544,-4.5812,-4.571,-4.5828,-4.5829,-4.5889,-4.5885,-4.6221,-4.5923,-4.5923,-4.5922,-4.5921,0,-4.4774,-4.4915,-4.4936,-4.5033,-4.519,-4.5189,-4.5345,-4.5379,-4.5442,-4.5547,-4.5516,-4.5615,-4.5623,-4.5726,-4.5735,-4.5893,-4.5919,-4.5934,-4.5936,-4.5939,-4.5937,-4.5979,-4.5965,-4.5931,-4.5929,-4.5927,-4.5926,0,-4.5013,-4.5033,-4.5203,-4.5273,-4.5294,-4.5406,-4.5467,-4.5561,-4.5583,-4.5716,-4.5748,-4.5784,-4.5903,-4.5922,-4.6062,-4.6069,-4.6259,-4.6243,-4.6233,-4.6232,-4.635,-4.634,-4.6727,-4.6779,-4.6445,-4.6448,-4.645,0,-4.5178,-4.5285,-4.5366,-4.5434,-4.5478,-4.5587,-4.5655,-4.5659,-4.5731,-4.5826,-4.591,-4.6026,-4.6119,-4.6312,-4.6352,-4.6459,-4.6447,-4.6575,-4.6463,-4.6464,-4.6453,-4.6447,-4.6459,-4.6598,-4.6601,-4.6604,-4.6607,0,-4.5468,-4.5473,-4.5571,-4.5674,-4.5756,-4.5837,-4.5913,-4.5971,-4.5985,-4.6068,-4.6189,-4.6261,-4.6404,-4.6521,-4.6628,-4.6671,-4.6644,-4.6641,-4.6675,-4.668,-4.6672,-4.6681,-4.6295,-4.6633,-4.663,-4.6628,-4.6627,-4.6626,-4.5677,-4.5771,-4.5843,-4.5954,-4.6012,-4.6085,-4.6177,-4.6211,-4.6312,-4.6429,-4.6425,-4.6559,-4.6634,-4.6775,-4.6825,-4.6932,-4.689,-4.6938,-4.6951,-4.6964,-4.6977,-4.6653,-4.6951,-4.695,-4.6949,-4.6949,-4.6948,0,-4.5968,-4.6013,-4.6115,-4.6223,-4.6311,-4.6274,-4.6358,-4.6434,-4.6552,-4.6624,-4.6716,-4.6857,-4.697,-4.7019,-4.7131,-4.7207,-4.7197,-4.7236,-4.7232,-4.7243,-4.7006,-4.6967,-4.7243,-4.7243,-4.7243,-4.7243,-4.7243,-4.7242,-4.613,-4.6288,-4.6301,-4.6488,-4.6532,-4.6662,-4.6714,-4.6781,-4.6839,-4.6997,-4.709,-4.7121,-4.7184,-4.7301,-4.7404,-4.7415,-4.7459,-4.7505,-4.7512,-4.7289,-4.726,-4.7231,-4.7195,-4.7514,-4.7515,-4.7741,-4.7743,-4.7744]},{"header":{"parameterUnit":"m.s-1","parameterCategory":1,"la1":30.2991,"la2":30.254,"lo1":-89.0895,"lo2":-89.0444,"dy":0.0017,"dx":0.0017,"nx":28,"ny":28,"refTime":"2023-09-21T09:00:00:Z","depth":0,"parameterNumber":3,"parameterNumberName":"V-component_of_WINDS"},"data":[0,0,0,0,0,0,0,0,0,0,0,0,0,0,0,0,0,0,0,0,0,0,0,0,0,0,0,0,0,0,0,0,0,0,0,0,0,0,0,0,0,0,0,0,0,0,0,0,0,0,0,0,0,0,0,0,0,0,-4.0106,-4.0106,0,-4.0093,-4.0093,-4.0093,-4.001,-4.0008,-4.0006,-4.0004,-3.9992,-3.9993,-3.9995,0,0,0,0,0,0,0,0,0,0,0,0,0,-4.0058,-4.006,-4.0106,-4.0106,-4.0105,-4.0093,-4.0093,-4.0093,-4.001,-4.0008,-4.0005,-4.0003,-3.9991,-3.9993,-3.9995,0,0,0,0,0,0,0,0,0,0,0,0,0,-4.0066,-4.006,-4.0106,-4.0063,-4.0059,-4.0093,-4.0093,-4.0093,-4.0011,-4.0008,-4.0005,-4.0002,-3.9991,-3.9993,-3.9995,-4.007,0,0,-4.0002,-4.0003,0,0,0,0,0,0,0,0,-4.0065,-4.0068,-4.0069,-4.0066,-4.0061,-4.005,-4.0072,-4.0085,-4.0011,-4.0029,-4.0004,-4.0,-4.0014,-4.0014,-4.0018,-4.007,-4.0069,-4.0003,-4.0004,-4.0005,-4.0006,0,0,0,0,0,0,0,-4.0065,-4.0068,-4.0101,-4.0069,-4.0065,-4.0044,-4.0042,-4.0074,-4.0039,-4.0027,-4.0021,-4.0021,-4.0011,-4.0016,-4.0017,-4.0069,-4.0003,-4.0005,-4.0006,-4.0007,-4.0179,-4.0182,0,0,0,0,0,0,-4.007,-4.0068,-4.0101,-4.01,-4.0056,-4.0047,-4.0045,-4.0057,-4.0038,-4.0032,-4.0023,-4.0017,-4.0014,-4.0015,-4.0017,-4.0101,-4.0005,-4.0007,-4.0009,-4.0176,-4.018,-4.0183,0,0,0,0,0,0,-4.007,-4.0074,-4.0102,-4.0082,-4.0084,-4.0051,-4.0065,-4.0058,-4.0063,-4.0035,-4.0028,-4.0035,-4.0011,-4.0013,-4.0057,-4.01,-4.0008,-4.001,-4.0172,-4.0177,-4.0181,-4.0272,0,0,0,0,0,0,-4.0069,-4.0074,-4.0103,-4.0084,-4.0086,-4.0142,-4.0068,-4.006,-4.0067,-4.0059,-4.0044,-4.0039,-4.0009,-4.0054,-4.0059,-4.0101,-4.0012,-4.0168,-4.0174,-4.018,-4.0265,-4.028,-4.0292,0,0,0,0,0,-4.0067,-4.013,-4.0105,-4.0109,-4.012,-4.0145,-4.0146,-4.011,-4.0071,-4.0099,-4.008,-4.0039,-4.0095,-4.0059,-4.0064,-4.0108,-4.0165,-4.0173,-4.018,-4.0259,-4.0277,-4.0291,0,0,0,0,0,0,-4.0155,-4.0126,-4.0098,-4.0156,-4.0154,-4.0131,-4.0165,-4.013,-4.0139,-4.0131,-4.0086,-4.0084,-4.0134,-4.0125,-4.0086,-4.0178,-4.0123,-4.0131,-4.0182,-4.0198,-4.0211,-4.0211,-4.0014,0,0,0,0,0,-4.0181,-4.0204,-4.0177,-4.0231,-4.0231,-4.0199,-4.0208,-4.018,-4.0176,-4.0175,-4.016,-4.0157,-4.0174,-4.0186,-4.0199,-4.0264,-4.0259,-4.0297,-4.031,-4.0321,-4.0328,-4.036,-4.0376,-4.0207,-4.0207,-4.0206,0,0,-4.0236,-4.0222,-4.0239,-4.0248,-4.0243,-4.0267,-4.0198,-4.0227,-4.0244,-4.0179,-4.0219,-4.0208,-4.0202,-4.0256,-4.0279,-4.0251,-4.0374,-4.033,-4.0339,-4.034,-4.0369,-4.0385,-4.0399,-4.0211,-4.0211,-4.021,0,0,-4.0346,-4.0339,-4.0381,-4.0377,-4.037,-4.0348,-4.0358,-4.0341,-4.0331,-4.037,-4.0321,-4.0341,-4.0371,-4.0368,-4.0371,-4.0479,-4.0441,-4.0485,-4.0554,-4.0585,-4.0598,-4.061,-4.0647,-4.0661,-4.0493,-4.0493,-4.0493,0,-4.0414,-4.0448,-4.0408,-4.0439,-4.0444,-4.0386,-4.0428,-4.0426,-4.0425,-4.0429,-4.0397,-4.0432,-4.0424,-4.0476,-4.0502,-4.0507,-4.0517,-4.0486,-4.06,-4.0611,-4.0621,-4.0655,-4.067,-4.0498,-4.0498,-4.0497,-4.0497,0,-4.0531,-4.0555,-4.059,-4.0588,-4.0597,-4.0634,-4.06,-4.0614,-4.0585,-4.0567,-4.0606,-4.0595,-4.0605,-4.0615,-4.0589,-4.0663,-4.0645,-4.0608,-4.055,-4.0643,-4.0675,-4.0688,-4.0506,-4.0504,-4.0502,-4.0501,0,0,-4.0696,-4.067,-4.0684,-4.0681,-4.0669,-4.0686,-4.0721,-4.0729,-4.0741,-4.0742,-4.0768,-4.0794,-4.0759,-4.0762,-4.0734,-4.0762,-4.0846,-4.0721,-4.072,-4.0743,-4.0926,-4.0953,-4.0969,-4.0822,-4.0824,-4.0826,-4.0925,0,-4.08,-4.0855,-4.082,-4.0881,-4.0902,-4.0847,-4.0876,-4.0871,-4.0855,-4.087,-4.0852,-4.087,-4.0823,-4.0824,-4.0849,-4.0831,-4.0882,-4.0824,-4.0845,-4.0846,-4.0846,-4.0985,-4.1014,-4.1108,-4.0938,-4.094,-4.0941,0,-4.0928,-4.0933,-4.0996,-4.0977,-4.0984,-4.1011,-4.1015,-4.1031,-4.1024,-4.101,-4.1013,-4.0978,-4.101,-4.0955,-4.0997,-4.0958,-4.0965,-4.0957,-4.096,-4.0959,-4.0898,-4.0987,-4.1138,-4.1151,-4.0961,-4.0959,-4.0958,0,-4.1039,-4.1062,-4.1101,-4.1101,-4.1081,-4.1101,-4.1094,-4.1084,-4.1091,-4.1095,-4.1099,-4.1107,-4.1111,-4.1119,-4.1087,-4.105,-4.1133,-4.1076,-4.1121,-4.1122,-4.1139,-4.1138,-4.1292,-4.1148,-4.1147,-4.1147,-4.1147,0,-4.1158,-4.1198,-4.115,-4.1175,-4.1218,-4.1177,-4.1221,-4.1208,-4.1199,-4.122,-4.1174,-4.1195,-4.1152,-4.1168,-4.1144,-4.1181,-4.1184,-4.1173,-4.1166,-4.1176,-4.1177,-4.1179,-4.117,-4.1151,-4.115,-4.1149,-4.1149,0,-4.1289,-4.1259,-4.1298,-4.1275,-4.127,-4.1303,-4.1283,-4.1305,-4.1285,-4.1311,-4.1315,-4.1284,-4.1301,-4.127,-4.1283,-4.1267,-4.1319,-4.1302,-4.1321,-4.1315,-4.1361,-4.1357,-4.1519,-4.1538,-4.1384,-4.1386,-4.1387,0,-4.1365,-4.1394,-4.1374,-4.1384,-4.1379,-4.1396,-4.1402,-4.1364,-4.1372,-4.1366,-4.1388,-4.1401,-4.1408,-4.1437,-4.1416,-4.1425,-4.1407,-4.1464,-4.1409,-4.1417,-4.1406,-4.1404,-4.1405,-4.1475,-4.1477,-4.1478,-4.148,0,-4.1504,-4.1487,-4.1497,-4.1503,-4.1511,-4.1514,-4.1513,-4.1524,-4.1483,-4.1495,-4.1511,-4.1517,-4.1529,-4.1542,-4.1546,-4.1538,-4.1502,-4.1497,-4.1508,-4.1518,-4.1526,-4.152,-4.135,-4.1493,-4.1492,-4.1491,-4.149,-4.149,-4.1608,-4.163,-4.1619,-4.1632,-4.1627,-4.1627,-4.1645,-4.1627,-4.164,-4.1646,-4.1623,-4.1643,-4.1635,-4.1637,-4.1633,-4.1649,-4.1623,-4.1639,-4.1643,-4.1647,-4.1653,-4.1525,-4.165,-4.1649,-4.1649,-4.1648,-4.1648,0,-4.1742,-4.1731,-4.1744,-4.1743,-4.1753,-4.1718,-4.1715,-4.1726,-4.1744,-4.1739,-4.1747,-4.1765,-4.1777,-4.1756,-4.1765,-4.1781,-4.1765,-4.1784,-4.1782,-4.178,-4.1676,-4.1665,-4.1797,-4.1797,-4.1797,-4.1797,-4.1797,-4.1797,-4.1812,-4.1847,-4.183,-4.1862,-4.1852,-4.187,-4.1872,-4.1871,-4.1867,-4.1888,-4.1897,-4.1883,-4.1872,-4.1879,-4.1888,-4.1882,-4.1886,-4.1912,-4.19,-4.1802,-4.1788,-4.1774,-4.1763,-4.1913,-4.1914,-4.2001,-4.2002,-4.2003]}]]